EW2235 Weather Reports


Display with metric or nautical units.
time (UTC)temp
F
wind
direction
speed
MPH
gust
MPH
rain 1hr
in
rain 24hr
in
rain mn
in
humidity
%
barometer
mb
20260509085834 52 318 0.0 0.0 0.00 0.00 0.00 87 1022.1
20260509085313 52 318 0.0 0.0 0.00 0.00 0.00 86 1022.1
20260509084322 53 318 0.0 0.0 0.00 0.00 0.00 85 1022.2
20260509083825 53 318 0.0 0.0 0.00 0.00 0.00 85 1022.2
20260509083325 53 318 0.0 0.0 0.00 0.00 0.00 84 1022.3
20260509082814 53 318 0.0 0.0 0.00 0.00 0.00 85 1022.4
20260509082312 53 318 0.0 0.0 0.00 0.00 0.00 84 1022.5
20260509081815 53 318 0.0 0.0 0.00 0.00 0.00 84 1022.4
20260509081321 53 317 0.0 0.0 0.00 0.00 0.00 84 1022.5
20260509080824 54 318 0.0 0.0 0.00 0.00 0.00 84 1022.6
20260509080330 53 318 0.0 0.0 0.00 0.00 0.00 84 1022.6
20260509075813 53 32 0.0 0.0 0.00 0.00 0.00 84 1022.6
20260509075312 54 332 0.0 0.0 0.00 0.00 0.00 84 1022.6
20260509074822 54 332 0.0 3.0 0.00 0.00 0.00 84 1022.6
20260509074321 54 332 0.0 3.0 0.00 0.00 0.00 84 1022.7
20260509073823 54 342 0.0 1.0 0.00 0.00 0.00 84 1022.6
20260509073330 54 336 0.0 4.0 0.00 0.00 0.00 84 1022.6
20260509072832 54 319 0.0 4.0 0.00 0.00 0.00 84 1022.6
20260509072311 54 322 0.0 0.0 0.00 0.00 0.00 84 1022.7
20260509071821 54 332 0.0 0.0 0.00 0.00 0.00 85 1022.7
20260509071321 54 335 0.0 0.0 0.00 0.00 0.00 84 1022.7
20260509070820 54 335 0.0 0.0 0.00 0.00 0.00 84 1022.7
20260509070326 54 305 0.0 2.0 0.00 0.00 0.00 84 1022.7
20260509065829 54 2 0.0 0.0 0.00 0.00 0.00 84 1022.7
20260509065335 54 105 0.0 0.0 0.00 0.00 0.00 83 1022.7
20260509064818 54 342 0.0 0.0 0.00 0.00 0.00 82 1022.7
20260509064317 55 101 0.0 0.0 0.00 0.00 0.00 82 1022.6
20260509063826 55 135 0.0 0.0 0.00 0.00 0.00 82 1022.7
20260509063326 55 135 0.0 0.0 0.00 0.00 0.00 81 1022.7
20260509062828 55 135 0.0 0.0 0.00 0.00 0.00 81 1022.7
20260509062315 55 316 0.0 0.0 0.00 0.00 0.00 81 1022.7
20260509061818 56 326 0.0 0.0 0.00 0.00 0.00 80 1022.6
20260509061317 56 326 0.0 0.0 0.00 0.00 0.00 80 1022.6
20260509060827 56 331 0.0 1.0 0.00 0.00 0.00 79 1022.6
20260509060326 56 351 0.0 0.0 0.00 0.00 0.00 79 1022.6
20260509055836 56 77 0.0 0.0 0.00 0.00 0.00 79 1022.6
20260509055317 57 329 0.0 0.0 0.00 0.00 0.00 79 1022.7
20260509054819 57 331 0.0 0.0 0.00 0.00 0.00 78 1022.7
20260509054318 57 331 0.0 1.0 0.00 0.00 0.00 78 1022.6
20260509053828 57 340 0.0 1.0 0.00 0.00 0.00 78 1022.6
20260509053328 57 338 0.0 0.0 0.00 0.00 0.00 78 1022.5
20260509052837 57 339 0.0 0.0 0.00 0.00 0.00 77 1022.5
20260509052316 57 326 0.0 0.0 0.00 0.00 0.00 77 1022.5
20260509051819 57 121 0.0 0.0 0.00 0.00 0.00 77 1022.4
20260509051325 57 99 0.0 0.0 0.00 0.00 0.00 76 1022.4
20260509050315 58 326 0.0 0.0 0.00 0.00 0.00 75 1022.4
20260509045824 58 297 0.0 0.0 0.00 0.00 0.00 74 1022.3
20260509045324 58 297 0.0 0.0 0.00 0.00 0.00 74 1022.2
20260509044826 59 297 0.0 0.0 0.00 0.00 0.00 73 1022.2
20260509044333 59 103 0.0 2.0 0.00 0.00 0.00 73 1022.2
20260509043823 59 311 0.0 2.0 0.00 0.00 0.00 72 1022.1
20260509043319 59 360 0.0 1.0 0.00 0.00 0.00 71 1022.1
20260509042828 60 115 0.0 0.0 0.00 0.00 0.00 70 1022.0
20260509042412 60 319 0.0 1.0 0.00 0.00 0.00 70 1021.9
20260509041813 60 346 0.0 1.0 0.00 0.00 0.00 69 1021.9
20260509041312 60 145 0.0 4.0 0.00 0.00 0.00 68 1021.9
20260509040821 60 318 0.0 4.0 0.00 0.00 0.00 68 1021.9
20260509040321 61 326 0.0 4.0 0.00 0.00 0.00 68 1021.8
20260509035830 61 4 1.0 4.0 0.00 0.00 0.00 67 1021.8
20260509035329 61 349 0.0 3.0 0.00 0.00 0.00 66 1021.8
20260509034813 61 335 1.0 8.0 0.00 0.00 0.00 66 1021.7
20260509034312 61 337 0.0 8.0 0.00 0.00 0.00 65 1021.7
20260509033829 61 105 0.0 3.0 0.00 0.00 0.00 65 1021.7
20260509033328 61 342 1.0 3.0 0.00 0.00 0.00 64 1021.6
20260509032838 62 355 0.0 3.0 0.00 0.00 0.00 64 1021.6
20260509032317 62 9 0.0 3.0 0.00 0.00 0.00 63 1021.5
20260509031819 62 329 0.0 3.0 0.00 0.00 0.00 63 1021.5
20260509031326 62 359 0.0 4.0 0.00 0.00 0.00 62 1021.5
20260509030828 62 333 0.0 4.0 0.00 0.00 0.00 62 1021.4
20260509030327 63 356 0.0 4.0 0.00 0.00 0.00 62 1021.4
20260509025817 63 314 0.0 4.0 0.00 0.00 0.00 61 1021.4
20260509025316 63 309 0.0 4.0 0.00 0.00 0.00 60 1021.4
20260509024819 64 322 0.0 5.0 0.00 0.00 0.00 60 1021.3
20260509024325 64 20 0.0 5.0 0.00 0.00 0.00 60 1021.3
20260509023334 64 340 0.0 5.0 0.00 0.00 0.00 58 1021.2
20260509022824 65 326 0.0 0.0 0.00 0.00 0.00 58 1021.1
20260509022322 65 344 0.0 0.0 0.00 0.00 0.00 57 1021.1
20260509021825 65 345 0.0 0.0 0.00 0.00 0.00 57 1021.2
20260509021331 65 333 0.0 5.0 0.00 0.00 0.00 56 1021.1
20260509020814 65 316 2.0 5.0 0.00 0.00 0.00 55 1021.2
20260509020313 66 88 0.0 0.0 0.00 0.00 0.00 56 1021.2
20260509015822 65 307 0.0 5.0 0.00 0.00 0.00 55 1021.2
20260509015321 66 290 0.0 5.0 0.00 0.00 0.00 56 1021.2
20260509014828 66 26 0.0 0.0 0.00 0.00 0.00 55 1021.2
20260509014327 65 285 0.0 0.0 0.00 0.00 0.00 56 1021.1
20260509013826 65 326 0.0 5.0 0.00 0.00 0.00 55 1021.2
20260509013333 65 328 0.0 6.0 0.00 0.00 0.00 55 1021.2
20260509012816 65 27 0.0 4.0 0.00 0.00 0.00 55 1021.2
20260509012314 66 252 0.0 6.0 0.00 0.00 0.00 54 1021.3
20260509011824 66 353 0.0 6.0 0.00 0.00 0.00 54 1021.3
20260509011323 66 319 0.0 4.0 0.00 0.00 0.00 55 1021.3
20260509010833 66 353 0.0 4.0 0.00 0.00 0.00 54 1021.4
20260509010312 66 20 0.0 7.0 0.00 0.00 0.00 53 1021.4
20260509005815 66 349 2.0 9.0 0.00 0.00 0.00 52 1021.4
20260509005314 67 332 2.0 9.0 0.00 0.00 0.00 52 1021.5
20260509004824 67 11 0.0 5.0 0.00 0.00 0.00 51 1021.4
20260509004323 67 302 1.0 5.0 0.00 0.00 0.00 51 1021.4
20260509003833 68 320 1.0 5.0 0.00 0.00 0.00 51 1021.4
20260509003312 67 312 0.0 4.0 0.00 0.00 0.00 52 1021.4
20260509002408 66 316 2.0 5.0 0.00 0.00 0.00 53 1021.4
20260509001833 66 124 0.0 1.0 0.00 0.00 0.00 53 1021.4
20260509001319 66 295 0.0 2.0 0.00 0.00 0.00 53 1021.4
20260509000821 65 294 0.0 3.0 0.00 0.00 0.00 54 1021.5
20260509000327 65 316 1.0 3.0 0.00 0.00 0.00 54 1021.6
20260508235831 66 276 0.0 0.0 0.00 0.00 0.00 54 1021.6
20260508235331 65 161 0.0 4.0 0.00 0.00 0.00 55 1021.6
20260508234813 65 1 2.0 5.0 0.00 0.00 0.00 53 1021.6
20260508234319 66 314 2.0 5.0 0.00 0.00 0.00 53 1021.6
20260508233822 66 206 0.0 3.0 0.00 0.00 0.00 54 1021.5
20260508233349 66 272 1.0 8.0 0.00 0.00 0.00 54 1021.5
20260508232838 65 290 1.0 8.0 0.00 0.00 0.00 54 1021.6
20260508232337 66 330 3.0 7.0 0.00 0.00 0.00 54 1021.6
20260508231846 65 309 0.0 5.0 0.00 0.00 0.00 54 1021.6
20260508231352 66 258 0.0 3.0 0.00 0.00 0.00 54 1021.6
20260508230834 66 358 0.0 6.0 0.00 0.00 0.00 53 1021.5
20260508230341 66 341 1.0 6.0 0.00 0.00 0.00 53 1021.5
20260508225850 66 14 0.0 1.0 0.00 0.00 0.00 53 1021.6
20260508225328 65 169 0.0 7.0 0.00 0.00 0.00 55 1021.6
20260508224838 65 159 1.0 7.0 0.00 0.00 0.00 52 1021.6
20260508224317 66 337 1.0 4.0 0.00 0.00 0.00 53 1021.6
20260508223819 66 327 1.0 4.0 0.00 0.00 0.00 54 1021.7
20260508223333 65 173 1.0 7.0 0.00 0.00 0.00 52 1021.7
20260508222816 66 323 1.0 7.0 0.00 0.00 0.00 52 1021.7
20260508222314 67 201 0.0 1.0 0.00 0.00 0.00 51 1021.7
20260508221816 66 39 0.0 7.0 0.00 0.00 0.00 53 1021.8
20260508221323 65 225 1.0 7.0 0.00 0.00 0.00 53 1021.8
20260508220825 65 200 0.0 5.0 0.00 0.00 0.00 54 1021.8
20260508215828 65 173 2.0 6.0 0.00 0.00 0.00 54 1021.8
20260508215327 65 162 1.0 7.0 0.00 0.00 0.00 54 1021.8
20260508214836 64 300 2.0 7.0 0.00 0.00 0.00 55 1021.8
20260508214316 65 148 0.0 5.0 0.00 0.00 0.00 54 1021.8
20260508213817 65 191 0.0 5.0 0.00 0.00 0.00 55 1021.8
20260508213317 64 120 0.0 4.0 0.00 0.00 0.00 57 1021.8
20260508212826 64 330 1.0 4.0 0.00 0.00 0.00 55 1021.8
20260508212325 64 219 0.0 4.0 0.00 0.00 0.00 55 1021.8
20260508211835 65 311 0.0 3.0 0.00 0.00 0.00 55 1021.9
20260508211314 64 169 0.0 7.0 0.00 0.00 0.00 56 1021.8
20260508210817 64 150 4.0 8.0 0.00 0.00 0.00 56 1021.9
20260508210323 63 148 2.0 8.0 0.00 0.00 0.00 55 1021.8
20260508205826 63 14 0.0 5.0 0.00 0.00 0.00 56 1021.8
20260508205325 63 329 0.0 3.0 0.00 0.00 0.00 57 1021.8
20260508204835 62 6 0.0 8.0 0.00 0.00 0.00 58 1021.8
20260508204314 61 308 2.0 8.0 0.00 0.00 0.00 58 1021.9
20260508203816 62 289 2.0 6.0 0.00 0.00 0.00 56 1021.9
20260508203323 63 117 1.0 4.0 0.00 0.00 0.00 56 1021.9
20260508202826 62 153 0.0 4.0 0.00 0.00 0.00 57 1021.9
20260508202333 62 220 1.0 6.0 0.00 0.00 0.00 58 1021.9
20260508201816 62 357 1.0 6.0 0.00 0.00 0.00 58 1022.0
20260508201314 61 128 0.0 6.0 0.00 0.00 0.00 59 1022.0
20260508200816 61 172 2.0 8.0 0.00 0.00 0.00 59 1022.0
20260508200323 60 131 1.0 8.0 0.00 0.00 0.00 60 1022.0
20260508195832 60 267 2.0 6.0 0.00 0.00 0.00 59 1022.0
20260508195311 61 191 1.0 10.0 0.00 0.00 0.00 59 1022.0
20260508194327 61 181 3.0 9.0 0.00 0.00 0.00 59 1022.1
20260508193815 60 240 0.0 8.0 0.00 0.00 0.00 62 1022.2
20260508193314 60 319 3.0 8.0 0.00 0.00 0.00 57 1022.0
20260508192823 61 303 2.0 8.0 0.00 0.00 0.00 58 1022.0
20260508192329 59 27 0.0 5.0 0.00 0.00 0.00 61 1022.0
20260508191838 59 302 1.0 6.0 0.00 0.00 0.00 61 1022.0
20260508190820 59 182 0.0 5.0 0.00 0.00 0.00 62 1022.1
20260508190326 59 296 1.0 5.0 0.00 0.00 0.00 62 1022.2
20260508185828 58 302 0.0 6.0 0.00 0.00 0.00 65 1022.2
20260508185335 57 209 1.0 6.0 0.00 0.00 0.00 65 1022.2
20260508184818 57 323 3.0 5.0 0.00 0.00 0.00 65 1022.3
20260508183827 58 257 0.0 4.0 0.00 0.00 0.00 65 1022.2
20260508183333 58 136 0.0 3.0 0.00 0.00 0.00 64 1022.3
20260508182837 58 109 1.0 6.0 0.00 0.00 0.00 64 1022.3
20260508182343 58 221 1.0 6.0 0.00 0.00 0.00 62 1022.2
20260508181939 58 126 0.0 3.0 0.00 0.00 0.00 65 1022.2
20260508181351 57 211 0.0 2.0 0.00 0.00 0.00 69 1022.0
20260508180840 55 46 0.0 6.0 0.00 0.00 0.00 69 1022.1
20260508180336 55 313 2.0 6.0 0.00 0.00 0.00 69 1022.0
20260508175853 57 313 0.0 6.0 0.00 0.00 0.00 67 1022.0
20260508175339 57 91 1.0 4.0 0.00 0.00 0.00 66 1021.9
20260508174841 56 268 0.0 3.0 0.00 0.00 0.00 69 1021.9
20260508174348 56 146 0.0 6.0 0.00 0.00 0.00 69 1021.9
20260508173834 56 293 1.0 6.0 0.00 0.00 0.00 69 1021.8
20260508173333 55 163 1.0 6.0 0.00 0.00 0.00 74 1021.8
20260508172843 54 134 0.0 3.0 0.00 0.00 0.00 76 1021.8
20260508172349 54 303 1.0 3.0 0.00 0.00 0.00 75 1021.7
20260508171859 54 313 0.0 5.0 0.00 0.00 0.00 75 1021.7
20260508171338 54 179 1.0 5.0 0.00 0.00 0.00 74 1021.6
20260508170847 54 307 0.0 4.0 0.00 0.00 0.00 76 1021.6
20260508170325 54 323 0.0 4.0 0.00 0.00 0.00 76 1021.5
20260508165835 53 137 0.0 2.0 0.00 0.00 0.00 77 1021.4
20260508165314 53 297 0.0 3.0 0.00 0.00 0.00 79 1021.4
20260508164817 52 300 0.0 1.0 0.00 0.00 0.00 78 1021.4
20260508164323 52 264 0.0 1.0 0.00 0.00 0.00 77 1021.3
20260508163825 53 359 0.0 0.0 0.00 0.00 0.00 78 1021.0
20260508163325 52 98 0.0 0.0 0.00 0.00 0.00 78 1021.1
20260508162815 52 309 0.0 0.0 0.00 0.00 0.00 79 1021.0
20260508162314 52 248 0.0 1.0 0.00 0.00 0.00 79 1021.1
20260508161816 52 122 0.0 4.0 0.00 0.00 0.00 79 1021.0
20260508161324 52 157 1.0 4.0 0.00 0.00 0.00 80 1021.2
20260508160826 51 282 0.0 3.0 0.00 0.00 0.00 80 1021.2
20260508160332 52 310 0.0 2.0 0.00 0.00 0.00 80 1020.8
20260508155815 52 182 0.0 2.0 0.00 0.00 0.00 79 1020.8
20260508155314 51 292 0.0 1.0 0.00 0.00 0.00 81 1020.9
20260508154824 51 288 0.0 2.0 0.00 0.00 0.00 81 1020.9
20260508154323 51 360 0.0 2.0 0.00 0.00 0.00 82 1020.9